Weather History for Douglas, WY

Change the Weather History Date:

Tuesday, February 5, 2013

  Actual Average Record
Temperature  
Mean Temperature 32 °F 25 °F  
Max Temperature 48 °F 38 °F 56 °F (2009)
Min Temperature 16 °F 12 °F -19 °F (2014)
Degree Days  
Heating Degree Days 33 40  
Month to date heating degree days 173 200  
Since 1 July heating degree days 4099 4531  
Cooling Degree Days 0 0  
Month to date cooling degree days 0 0  
Year to date cooling degree days 0 0  
Moisture  
Dew Point 17 °F    
Average Humidity 54    
Maximum Humidity 77    
Minimum Humidity 31    
Precipitation  
Precipitation 0.00 in 0.01 in 0.13 in (1974)
Month to date precipitation T 0.07  
Year to date precipitation 0.09 0.45  
Sea Level Pressure  
Sea Level Pressure 29.96 in    
Wind  
Wind Speed 4 mph (South)    
Max Wind Speed 13 mph    
Max Gust Speed 17 mph    
Visibility 10 miles    
Events      
T = Trace of Precipitation, MM = Missing Value Source: NWS Daily Summary

Daily Weather History Graph

Daily Weather History Graph

Search for Another Location

Airport:

Trip Planner

Search our weather history database for the weather conditions in past years. The results will help you decide how hot, cold, wet, or windy it might be!

Date:

Astronomy

Feb. 05, 2013 Rise Set
Actual Time 7:11 AM MST 5:20 PM MST
Civil Twilight 6:41 AM MST 5:50 PM MST
Nautical Twilight 6:08 AM MST 6:23 PM MST
Astronomical Twilight 5:35 AM MST 6:56 PM MST
Moon 2:58 AM MST (2/5) 12:37 PM MST (2/5)
Length of Visible Light 11h 08m
Length of Day
10h 09m
Waning Crescent, 26% of the Moon is Illuminated
Feb 5
Waning Crescent
Feb 10
New
Feb 17
First Quarter
Feb 25
Full
Mar 4
Last Quarter

Hourly Weather History & Observations

Time (MST) Temp. Windchill Dew Point Humidity Pressure Visibility Wind Dir Wind Speed Gust Speed Precip Events Conditions
12:53 AM 25.0 °F 20.7 °F 16.0 °F 69% 29.93 in 10.0 mi North 3.5 mph - N/A   Clear
1:53 AM 26.1 °F 19.4 °F 17.1 °F 69% 29.95 in 10.0 mi North 5.8 mph - N/A   Clear
2:53 AM 25.0 °F 18.1 °F 16.0 °F 69% 29.99 in 10.0 mi North 5.8 mph - N/A   Clear
3:53 AM 26.1 °F 18.4 °F 17.1 °F 69% 29.99 in 10.0 mi NW 6.9 mph - N/A   Clear
4:53 AM 21.9 °F 14.5 °F 15.1 °F 75% 30.04 in 10.0 mi NW 5.8 mph - N/A   Clear
5:53 AM 19.9 °F - 14.0 °F 78% 30.07 in 10.0 mi Calm Calm - N/A   Clear
6:53 AM 19.9 °F 12.1 °F 12.9 °F 74% 30.10 in 10.0 mi North 5.8 mph - N/A   Clear
7:53 AM 19.9 °F - 14.0 °F 78% 30.12 in 10.0 mi Calm Calm - N/A   Clear
8:53 AM 27.0 °F 21.6 °F 19.0 °F 72% 30.12 in 10.0 mi SSE 4.6 mph - N/A   Clear
9:53 AM 36.0 °F 32.1 °F 19.0 °F 50% 30.04 in 10.0 mi East 4.6 mph - N/A   Clear
10:53 AM 42.1 °F 37.1 °F 19.9 °F 41% 30.04 in 10.0 mi SE 8.1 mph - N/A   Clear
11:53 AM 44.1 °F 39.0 °F 18.0 °F 35% 29.98 in 10.0 mi SE 9.2 mph - N/A   Partly Cloudy
12:53 PM 46.0 °F 41.4 °F 19.0 °F 34% 29.94 in 10.0 mi SSE 9.2 mph - N/A   Clear
1:53 PM 46.9 °F - 19.9 °F 34% 29.89 in 10.0 mi ESE 5.8 mph - N/A   Clear
2:53 PM 48.0 °F - 19.9 °F 33% 29.88 in 10.0 mi Calm Calm - N/A   Clear
3:53 PM 48.0 °F - 19.9 °F 33% 29.87 in 10.0 mi Calm Calm - N/A   Clear
4:53 PM 43.0 °F 40.3 °F 19.0 °F 38% 29.90 in 10.0 mi South 4.6 mph - N/A   Clear
5:53 PM 41.0 °F 35.2 °F 17.1 °F 38% 29.90 in 10.0 mi WSW 9.2 mph - N/A   Clear
6:53 PM 42.1 °F 37.1 °F 16.0 °F 35% 29.90 in 10.0 mi SW 8.1 mph - N/A   Clear
7:53 PM 34.0 °F - 17.1 °F 50% 29.92 in 10.0 mi Calm Calm - N/A   Clear
8:53 PM 37.0 °F - 17.1 °F 44% 29.86 in 10.0 mi Calm Calm - N/A   Clear
9:53 PM 32.0 °F - 16.0 °F 52% 29.85 in 10.0 mi Calm Calm - N/A   Clear
10:53 PM 35.1 °F 32.2 °F 16.0 °F 46% 29.80 in 10.0 mi SW 3.5 mph - N/A   Clear